Regional Weather Roundup
Issued by NWS

Home | Current Version | Previous Version | Text Only | Print | Product List | Glossary Off
Versions: 1 2 3 4 5 6 7 8 9 10 11 12 13 14 15 16 17 18 19 20 21 22 23 24 25 26 27 28 29 30 31 32 33 34 35 36 37 38 39 40 41 42 43 44 45 46 47 48 49 50

447
ASUS43 KBIS 280902
RWRND

NORTH DAKOTA REGIONAL WEATHER ROUNDUP
NATIONAL WEATHER SERVICE BISMARCK ND
400 AM CDT SAT MAY 28 2016

NOTE: "FAIR" INDICATES FEW OR NO CLOUDS BELOW 12,000 FEET WITH NO
SIGNIFICANT WEATHER AND/OR OBSTRUCTIONS TO VISIBILITY.


NDZ001>003-009>011-017-281000-
NORTHWEST NORTH DAKOTA

CITY           SKY/WX    TMP DP  RH WIND       PRES   REMARKS
WILLISTON      CLOUDY    57  53  86 E8        29.88S
MINOT          CLOUDY    56  54  93 NE8       29.87S FOG
MINOT AFB      CLOUDY    54  54 100 NE8       29.87F
$$

NDZ018>021-031>035-040>046-281000-
SOUTHWEST NORTH DAKOTA

CITY           SKY/WX    TMP DP  RH WIND       PRES   REMARKS
BISMARCK       CLOUDY    50  49  96 E3        29.85R
DICKINSON      CLOUDY    47  44  90 S3        29.84S
GARRISON         N/A     57  54  89 NE6       29.86R
HETTINGER ARPT PTCLDY    39  37  92 NW3       29.87S
$$

NDZ004>008-012>016-024-026-027-054-281000-
NORTHEAST NORTH DAKOTA

CITY           SKY/WX    TMP DP  RH WIND       PRES   REMARKS
GRAND FORKS    CLOUDY    62  58  86 E3        29.82R
GRND FRKS AFB  CLOUDY    60  60 100 CALM      29.82S
DEVILS LAKE    CLOUDY    56  55  97 N10       29.87R FOG
$$

NDZ022-023-025-028>030-036>039-047>053-281000-
SOUTHEAST NORTH DAKOTA

CITY           SKY/WX    TMP DP  RH WIND       PRES   REMARKS
FARGO          CLOUDY    59  56  89 E6        29.80S
JAMESTOWN      LGT RAIN  58  57  97 NW3       29.81R
$$





USA.gov is the U.S. government's official web portal to all federal, state and local government web resources and services.